Location: Unspecified
(22.6800°N, 112.2000°E)
Time: 07:48:53
(UTC+08:00)

Courier 1B Rocket - Pass Details

Date: 07 August 2021
Orbit: 920 x 1202 km, 28.3° (Epoch: 22 September)

Event Time Altitude Azimuth Distance (km) Brightness Sun altitude
Rises 20:50:47 0° 226° (SW) 4,088 8.5 -22.4°
Reaches altitude 10° 20:53:51 10° 219° (SW) 3,121 7.7 -23.0°
Enters shadow 21:00:55 40° 154° (SSE) 1,659 5.8 -24.4°
